Regional Weather Roundup
Issued by NWS

Home | Current Version | Previous Version | Graphics & Text | Print | Product List | Glossary On
Versions: 1 2 3 4 5 6 7 8 9 10 11 12 13 14 15 16 17 18 19 20 21 22 23 24 25 26 27 28 29 30 31 32 33 34 35 36 37 38 39 40 41 42 43 44 45 46 47 48 49 50
000
ASUS45 KSLC 302310
RWRUT

UTAH REGIONAL WEATHER ROUNDUP
NATIONAL WEATHER SERVICE SALT LAKE CITY UT
400 PM MST FRI JAN 30 2015

UTZ001>011-023>025-310000-

NORTHERN UTAH

CITY           SKY/WX    TMP DP  RH WIND       PRES   REMARKS
BRIGHAM CITY   CLOUDY    47  33  58 W3        30.02F
HILL AFB       CLOUDY    45  27  49 E10G20    30.01F
LOGAN          CLOUDY    40  33  76 CALM      30.05F
OGDEN          CLOUDY    48  33  56 N7        30.00F
PROVO AIRPORT  CLOUDY    41  36  81 NW12      29.99F
SALT LAKE CITY CLOUDY    42  36  79 W5        30.01F
VERNAL         LGT RAIN  41  37  86 CALM      30.04F
WENDOVER       CLOUDY    46  34  61 N7        30.02F
HEBER CITY     CLOUDY    37  32  81 CALM      30.02F
WEST JORDAN    CLOUDY    43  39  87 NW7       30.01F

$$

UTZ012>022-026-027-310000-

SOUTHERN/CENTRAL UTAH

CITY           SKY/WX    TMP DP  RH WIND       PRES   REMARKS
BLANDING       CLOUDY    34  34 100 SE12      30.09F WCI  26
BRYCE CANYON   CLOUDY    32  31  96 S8        29.94F WCI  25
CEDAR CITY     CLOUDY    43  37  79 W3        29.86F
DELTA          CLOUDY    43  41  93 N12       29.95F
HANKSVILLE     CLOUDY    43  37  81 CALM      30.01F
MILFORD        CLOUDY    42  39  89 N16       29.90F
MOAB/CYNLANDS  CLOUDY    44  40  85 SE3       29.99F
PRICE          CLOUDY    40  36  86 CALM      30.01F
ST GEORGE      CLOUDY    48  45  87 W3        29.89F
KANAB          CLOUDY    39  34  81 N10G18    29.94F WCI  32

$$

REGIONAL REPORTS     COLORADO/ARIZONA

CITY           SKY/WX    TMP DP  RH WIND       PRES   REMARKS
CRAIG, CO      CLOUDY    36  32  85 SW5       30.04F WCI  32
GRAND JUNCTION LGT RAIN  44  39  82 S5        30.01F
RIFLE          LGT RAIN  43  33  68 CALM      30.01F
MONTROSE       CLOUDY    42  36  79 NW7       30.02F
CORTEZ         LGT RAIN  38  36  92 W5        30.01F WCI  34
PAGE, AZ       NOT AVBL
GRAND CANYON   LGT RAIN  38  36  92 E7        29.90S FOG     WCI  33
KINGMAN        CLOUDY    49  46  90 N3        29.84S
FLAGSTAFF      LGT RAIN  40  37  89 S10       29.91R FOG     WCI  33

$$

REGIONAL REPORTS    NEVADA/IDAHO/WYOMING

CITY           SKY/WX    TMP DP  RH WIND       PRES   REMARKS
LAS VEGAS, NV  LGT RAIN  54  42  64 NW10G20   29.83S
ELY            CLOUDY    39  34  82 N21G30    29.95F WCI  29
ELKO           PTSUNNY   48  33  56 NE13      30.01S
POCATELLO, ID  SUNNY     39  32  76 W7        30.12F WCI  34
BURLEY         PTSUNNY   38  31  76 W10       30.12F WCI  31
EVANSTON, WY   CLOUDY    34  27  75 NE7       30.06F WCI  28
ROCK SPRINGS   CLOUDY    35  31  85 NE10      30.08F WCI  27
KEMMERER       CLOUDY    34  25  69 NE8       30.08F WCI  27

$$



USA.gov is the U.S. government's official web portal to all federal, state and local government web resources and services.